Location: Huisseau
(47.5933°N, 1.4533°E)
Time: 18:00:45
(UTC+00:00)

CENTAUR R/B - Pass Details

Date: 26 November 2025
Orbit: 633 x 1547 km, 63.4° (Epoch: 06 December)

Event Time Altitude Azimuth Distance (km) Brightness Sun altitude
Exits shadow 05:44:52 11° 251° (WSW) 3,614 5.0 -14.8°
Drops below altitude 10° 05:45:51 10° 245° (WSW) 3,689 5.0 -14.6°
Sets 05:52:03 0° 215° (SW) 4,702 5.9 -13.6°
